Retour au catalogue

SL-14 R/B

ActifPO
NORAD 12880·ROCKET BODY·🇷🇺 Russia

Lancé Sep 30, 1981 depuis Plesetsk Cosmodrome

Loading…

Prochains Passages (prochaines 24 heures)

TLE

FraisSource: Space-Track

Époque: Sep 14, 2026, 23:15 UTC

1 12880U 81098B   26257.96924113  .00000027  00000-0  12517-3 0  9990
2 12880  82.6047 161.9714 0006606 198.1060 180.0076 12.42862651 39584

Suivez SL-14 R/B en temps réel avec AllMySat

Download on the App Store